QPF
0.00 0.00 0.00 0.00 0.00 0.00 0.00 0.00 0.00 0.00 0.00 0.00 0.00 0.00 0.00 0.00 0.00 0.00 0.00 0.00 0.00 0.00 0.00 0.00 0.00 0.00 0.00 0.00 0.00 0.00 0.00 0.00 0.00 0.00 0.00 0.00 0.00 0.00 0.00 0.00 0.00 0.00 0.00 0.00 0.00 0.00 0.00 0.00 0.00
0.00 0.00 0.00 0.00 0.00 0.00 0.00 0.00 0.00 0.00 0.00 0.00 0.00 0.00 0.00 0.00 0.00 0.00 0.00 0.00 0.00 0.00 0.00 0.00 0.00 0.00 0.00 0.00 0.00 0.00 0.00 0.00 0.00 0.00 0.00 0.00 0.00 0.00 0.00 0.00 0.00 0.00 0.00 0.00 0.00 0.00 0.00 0.00 0.00
0.00 0.00 0.00 0.00 0.00 0.00 0.00 0.00 0.00 0.00 0.00 0.00 0.00 0.00 0.00 0.00 0.00 0.00 0.00 0.00 0.00 0.00 0.00 0.00 0.00 0.00 0.00 0.00 0.00 0.00 0.00 0.00 0.00 0.00 0.00 0.00 0.00 0.00 0.00 0.00 0.00 0.00 0.00 0.00 0.00 0.00 0.00 0.00 0.00
0.00 0.00 0.00 0.00 0.00 0.00 0.00 0.00 0.00 0.00 0.00 0.00 0.00 0.00 0.00 0.00 0.00 0.00 0.00 0.00 0.00 0.00 0.00 0.00 0.00 0.00 0.00 0.00 0.00 0.00 0.00 0.00 0.00 0.00 0.00 0.00 0.00 0.00 0.00 0.00 0.00 0.00 0.00 0.00 0.00 0.00 0.00 0.00 0.00
0.00 0.00 0.00 0.00 0.00 0.00 0.00 0.00 0.00 0.00 0.00 0.00 0.00 0.00 0.00 0.00 0.00 0.00 0.00 0.00 0.00 0.00 0.00 0.00 0.00 0.00 0.00 0.00 0.00 0.00 0.00 0.00 0.00 0.00 0.00 0.00 0.00 0.00 0.00 0.00 0.00 0.00 0.00 0.00 0.00 0.00 0.00 0.00 0.00
0.00 0.00 0.00 0.00 0.00 0.00 0.00 0.00 0.00 0.00 0.00 0.00 0.00 0.00 0.00 0.00 0.00 0.00 0.00 0.00 0.00 0.00 0.00 0.00 0.00 0.00 0.00 0.00 0.00 0.00 0.00 0.00 0.00 0.00 0.00 0.00 0.00 0.00 0.00 0.00 0.00 0.00 0.00 0.00 0.00 0.00 0.00 0.00 0.00
0.00 0.00 0.00 0.00 0.00 0.00 0.00 0.00 0.00 0.00 0.00 0.00 0.00 0.00 0.00 0.00 0.00 0.00 0.00 0.00 0.00 0.00 0.00 0.00 0.00 0.00 0.00 0.00 0.00 0.00 0.00 0.00 0.00 0.00 0.00 0.00 0.00 0.00 0.00 0.00 0.00 0.00 0.00 0.00 0.00 0.00 0.00 0.01 0.02
0.00 0.00 0.00 0.00 0.00 0.00 0.00 0.00 0.00 0.00 0.00 0.00 0.00 0.00 0.00 0.00 0.00 0.00 0.00 0.00 0.00 0.00 0.00 0.00 0.00 0.00 0.00 0.00 0.00 0.00 0.00 0.00 0.00 0.00 0.00 0.00 0.00 0.00 0.00 0.00 0.00 0.00 0.00 0.00 0.00 0.00 0.01 0.01 0.01
0.00 0.00 0.00 0.00 0.00 0.00 0.00 0.00 0.00 0.00 0.00 0.00 0.00 0.00 0.00 0.00 0.00 0.00 0.00 0.00 0.00 0.00 0.00 0.00 0.00 0.00 0.00 0.00 0.00 0.00 0.00 0.00 0.00 0.00 0.00 0.00 0.00 0.00 0.00 0.00 0.00 0.00 0.00 0.00 0.00 0.00 0.02 0.00 0.00
0.00 0.00 0.00 0.00 0.00 0.00 0.00 0.00 0.00 0.00 0.00 0.00 0.00 0.00 0.00 0.00 0.00 0.00 0.00 0.00 0.00 0.00 0.00 0.00 0.00 0.00 0.00 0.00 0.00 0.00 0.00 0.00 0.00 0.00 0.00 0.00 0.00 0.00 0.00 0.00 0.00 0.00 0.00 0.00 0.00 0.00 0.00 0.00 0.00
0.00 0.00 0.00 0.00 0.00 0.00 0.00 0.00 0.00 0.00 0.00 0.00 0.00 0.00 0.00 0.00 0.00 0.00 0.00 0.00 0.00 0.00 0.00 0.00 0.00 0.00 0.00 0.00 0.00 0.00 0.00 0.00 0.00 0.00 0.00 0.00 0.00 0.00 0.00 0.00 0.00 0.00 0.00 0.00 0.00 0.00 0.00 0.00 0.00
0.00 0.00 0.00 0.00 0.00 0.00 0.00 0.00 0.00 0.00 0.00 0.00 0.00 0.00 0.00 0.00 0.00 0.00 0.00 0.00 0.00 0.00 0.00 0.00 0.00 0.00 0.00 0.00 0.00 0.00 0.00 0.00 0.00 0.00 0.00 0.00 0.00 0.00 0.00 0.00 0.00 0.00 0.00 0.00 0.00 0.00 0.00 0.00 0.00
0.00 0.00 0.00 0.00 0.00 0.00 0.00 0.00 0.00 0.00 0.00 0.00 0.00 0.00 0.00 0.00 0.00 0.00 0.00 0.00 0.00 0.00 0.00 0.00 0.00 0.00 0.00 0.00 0.00 0.00 0.00 0.00 0.00 0.00 0.00 0.00 0.00 0.00 0.00 0.00 0.00 0.00 0.00 0.00 0.00 0.00 0.00 0.00 0.00
0.00 0.00 0.00 0.00 0.00 0.00 0.00 0.00 0.00 0.00 0.00 0.00 0.00 0.00 0.00 0.00 0.00 0.00 0.00 0.00 0.00 0.00 0.00 0.00 0.00 0.00 0.00 0.00 0.00 0.00 0.00 0.00 0.00 0.00 0.00 0.00 0.00 0.00 0.00 0.00 0.00 0.00 0.00 0.00 0.00 0.00 0.00 0.00 0.00
0.00 0.00 0.00 0.00 0.00 0.00 0.00 0.00 0.00 0.00 0.00 0.00 0.00 0.00 0.00 0.00 0.00 0.00 0.00 0.00 0.00 0.00 0.00 0.00 0.00 0.00 0.00 0.00 0.00 0.00 0.00 0.00 0.00 0.00 0.00 0.00 0.00 0.00 0.00 0.00 0.00 0.00 0.00 0.00 0.00 0.00 0.00 0.00 0.00
0.00 0.00 0.00 0.00 0.00 0.00 0.00 0.00 0.00 0.00 0.00 0.00 0.00 0.00 0.00 0.00 0.00 0.00 0.00 0.00 0.00 0.00 0.00 0.00 0.00 0.00 0.00 0.00 0.00 0.00 0.00 0.00 0.00 0.00 0.00 0.00 0.00 0.00 0.00 0.00 0.00 0.00 0.00 0.00 0.00 0.00 0.00 0.00 0.00
0.00 0.00 0.00 0.00 0.00 0.00 0.00 0.00 0.00 0.00 0.00 0.00 0.00 0.00 0.00 0.00 0.00 0.00 0.00 0.00 0.00 0.00 0.00 0.00 0.00 0.00 0.00 0.00 0.00 0.00 0.00 0.00 0.00 0.02 0.01 0.01 0.00 0.00 0.00 0.00 0.00 0.00 0.00 0.00 0.00 0.00 0.00 0.00 0.00
0.00 0.00 0.00 0.00 0.00 0.00 0.00 0.00 0.00 0.00 0.00 0.00 0.00 0.00 0.00 0.00 0.00 0.00 0.00 0.00 0.00 0.00 0.00 0.00 0.02 0.02 0.01 0.03 0.02 0.05 0.03 0.00 0.01 0.03 0.02 0.00 0.00 0.00 0.00 0.00 0.00 0.00 0.00 0.00 0.00 0.00 0.00 0.00 0.00
0.00 0.00 0.00 0.00 0.00 0.00 0.00 0.00 0.00 0.00 0.00 0.00 0.00 0.00 0.00 0.00 0.00 0.00 0.00 0.00 0.00 0.00 0.00 0.00 0.00 0.01 0.06 0.18 0.11 0.06 0.01 0.02 0.03 0.02 0.00 0.00 0.00 0.00 0.00 0.00 0.00 0.00 0.00 0.00 0.00 0.00 0.00 0.00 0.00
0.00 0.00 0.00 0.00 0.00 0.00 0.00 0.00 0.00 0.00 0.00 0.00 0.00 0.00 0.00 0.00 0.00 0.00 0.00 0.00 0.00 0.00 0.00 0.00 0.01 0.01 0.09 0.31 0.37 0.16 0.00 0.01 0.03 0.01 0.00 0.00 0.00 0.00 0.00 0.00 0.00 0.00 0.00 0.00 0.00 0.00 0.00 0.00 0.00
0.00 0.00 0.00 0.00 0.00 0.00 0.00 0.00 0.00 0.00 0.00 0.00 0.00 0.00 0.00 0.00 0.00 0.00 0.00 0.00 0.00 0.00 0.00 0.00 0.00 0.02 0.08 0.13 0.12 0.11 0.02 0.02 0.00 0.00 0.00 0.00 0.00 0.00 0.00 0.00 0.00 0.00 0.00 0.00 0.00 0.00 0.00 0.00 0.00
0.00 0.00 0.00 0.00 0.00 0.00 0.00 0.00 0.00 0.00 0.00 0.00 0.00 0.00 0.00 0.00 0.00 0.00 0.00 0.00 0.00 0.00 0.00 0.00 0.00 0.01 0.01 0.00 0.00 0.00 0.00 0.00 0.00 0.00 0.00 0.00 0.00 0.00 0.00 0.00 0.00 0.00 0.00 0.00 0.00 0.00 0.00 0.00 0.00
0.00 0.00 0.00 0.00 0.00 0.00 0.00 0.00 0.00 0.00 0.00 0.00 0.00 0.00 0.00 0.00 0.00 0.00 0.00 0.00 0.00 0.00 0.00 0.00 0.00 0.01 0.01 0.00 0.00 0.00 0.00 0.00 0.00 0.00 0.00 0.00 0.00 0.00 0.00 0.00 0.00 0.00 0.00 0.00 0.00 0.00 0.00 0.00 0.00
0.00 0.00 0.00 0.00 0.00 0.00 0.00 0.00 0.00 0.00 0.00 0.00 0.00 0.00 0.00 0.00 0.00 0.00 0.00 0.00 0.00 0.00 0.00 0.00 0.00 0.00 0.00 0.00 0.00 0.00 0.00 0.00 0.00 0.00 0.00 0.00 0.00 0.00 0.00 0.00 0.00 0.00 0.00 0.00 0.00 0.00 0.00 0.00 0.00
0.00 0.00 0.00 0.00 0.00 0.00 0.00 0.00 0.00 0.00 0.00 0.00 0.00 0.00 0.00 0.00 0.00 0.00 0.00 0.00 0.00 0.00 0.00 0.00 0.00 0.00 0.00 0.00 0.00 0.00 0.00 0.00 0.00 0.00 0.00 0.00 0.00 0.00 0.00 0.00 0.00 0.00 0.00 0.00 0.00 0.00 0.00 0.00 0.00
0.00 0.00 0.00 0.00 0.00 0.00 0.00 0.00 0.00 0.00 0.00 0.00 0.00 0.00 0.00 0.00 0.00 0.00 0.00 0.00 0.00 0.00 0.00 0.00 0.00 0.00 0.00 0.00 0.00 0.00 0.00 0.00 0.00 0.00 0.00 0.00 0.00 0.00 0.00 0.00 0.00 0.00 0.00 0.00 0.00 0.00 0.00 0.00 0.00
0.00 0.00 0.00 0.00 0.00 0.00 0.00 0.00 0.00 0.00 0.00 0.00 0.00 0.00 0.00 0.00 0.00 0.00 0.00 0.00 0.00 0.00 0.00 0.00 0.00 0.00 0.00 0.00 0.00 0.00 0.00 0.00 0.00 0.00 0.00 0.00 0.00 0.00 0.00 0.00 0.00 0.00 0.00 0.00 0.00 0.00 0.00 0.00 0.00
0.00 0.00 0.00 0.00 0.00 0.00 0.00 0.00 0.00 0.00 0.00 0.00 0.00 0.00 0.00 0.00 0.00 0.00 0.00 0.00 0.00 0.00 0.00 0.00 0.00 0.00 0.00 0.00 0.00 0.00 0.00 0.00 0.01 0.01 0.00 0.00 0.00 0.00 0.00 0.00 0.00 0.00 0.00 0.00 0.00 0.00 0.00 0.00 0.00
0.00 0.00 0.00 0.00 0.00 0.00 0.00 0.00 0.00 0.00 0.00 0.00 0.00 0.00 0.00 0.00 0.00 0.00 0.00 0.00 0.00 0.00 0.00 0.00 0.00 0.00 0.00 0.00 0.00 0.00 0.01 0.03 0.07 0.05 0.02 0.00 0.00 0.00 0.00 0.00 0.00 0.00 0.00 0.00 0.00 0.00 0.00 0.00 0.00
0.00 0.00 0.00 0.00 0.00 0.00 0.00 0.00 0.00 0.00 0.00 0.00 0.00 0.00 0.00 0.00 0.00 0.00 0.00 0.00 0.00 0.00 0.00 0.00 0.00 0.00 0.04 0.05 0.05 0.07 0.10 0.10 0.11 0.10 0.04 0.00 0.00 0.00 0.00 0.01 0.00 0.00 0.00 0.00 0.00 0.00 0.00 0.00 0.00
MSLP
1010.79 1011.08 1011.29 1011.41 1012.42 1012.60 1012.06 1011.55 1010.56 1009.78 1009.55 1009.37 1009.51 1010.10 1010.78 1011.82 1012.41 1013.59 1013.15 1013.29 1013.51 1014.13 1014.35 1014.67 1014.91 1015.27 1015.53 1015.70 1015.99 1016.44 1016.56 1016.72 1016.91 1016.97 1017.05 1017.03 1017.08 1017.22 1017.28 1017.18 1017.23 1017.10 1016.89 1016.79 1016.77 1016.66 1016.47 1016.25 1016.15
1010.87 1011.31 1011.62 1012.11 1012.79 1013.14 1011.97 1011.21 1010.56 1010.19 1009.82 1009.77 1009.89 1010.49 1011.10 1012.02 1012.42 1012.87 1013.27 1013.66 1013.76 1014.16 1014.85 1015.17 1015.20 1015.48 1015.76 1016.00 1016.35 1016.69 1016.92 1017.08 1017.24 1017.46 1017.43 1017.43 1017.37 1017.47 1017.55 1017.56 1017.51 1017.30 1017.14 1017.01 1017.00 1016.93 1016.72 1016.50 1016.08
1010.73 1010.99 1011.95 1012.81 1013.50 1012.99 1011.80 1010.83 1010.38 1010.12 1010.01 1010.16 1010.33 1010.67 1011.43 1012.47 1012.86 1013.35 1013.59 1013.95 1014.28 1014.90 1015.23 1015.49 1015.65 1015.74 1015.93 1016.18 1016.68 1017.02 1017.25 1017.36 1017.60 1017.69 1017.75 1017.80 1017.78 1017.82 1017.84 1017.81 1017.75 1017.66 1017.53 1017.43 1017.29 1017.15 1016.98 1016.83 1016.47
1010.85 1011.56 1012.65 1012.87 1013.27 1012.07 1011.18 1010.51 1010.57 1010.15 1010.28 1010.47 1010.71 1011.40 1011.98 1012.47 1012.92 1013.44 1013.99 1014.35 1014.85 1015.29 1015.54 1015.58 1015.87 1016.05 1016.22 1016.56 1016.91 1017.08 1017.32 1017.59 1017.78 1017.99 1018.05 1018.06 1018.09 1018.13 1018.10 1018.06 1017.98 1017.82 1017.74 1017.65 1017.60 1017.55 1017.23 1017.08 1016.85
1011.13 1011.91 1012.77 1013.12 1012.61 1011.56 1010.75 1010.36 1009.83 1010.00 1010.56 1010.93 1011.06 1011.94 1012.57 1012.99 1012.83 1013.45 1013.92 1014.56 1014.93 1015.58 1015.74 1015.79 1015.93 1016.24 1016.54 1016.79 1017.12 1017.32 1017.45 1017.66 1017.81 1017.95 1018.04 1018.14 1018.18 1018.17 1018.27 1018.33 1018.28 1018.11 1017.96 1017.90 1017.77 1017.64 1017.55 1017.41 1017.31
1011.56 1012.31 1013.05 1013.10 1012.29 1011.27 1010.71 1009.99 1010.17 1010.15 1011.04 1011.38 1011.58 1012.10 1013.19 1013.36 1013.34 1013.75 1013.95 1014.36 1014.77 1015.59 1015.76 1016.09 1016.39 1016.68 1016.84 1017.25 1017.41 1017.72 1017.93 1017.95 1018.03 1018.06 1018.16 1018.19 1018.20 1018.25 1018.36 1018.40 1018.39 1018.33 1018.26 1018.13 1017.95 1017.67 1017.77 1017.82 1017.79
1011.41 1012.56 1013.03 1012.63 1011.97 1011.11 1010.64 1010.30 1010.34 1010.84 1011.51 1011.53 1011.71 1012.44 1013.23 1013.60 1013.96 1014.13 1014.62 1014.92 1015.23 1015.73 1016.06 1016.13 1016.24 1016.71 1017.11 1017.41 1017.64 1017.82 1018.06 1018.17 1018.32 1018.37 1018.38 1018.41 1018.44 1018.39 1018.44 1018.58 1018.68 1018.62 1018.52 1018.24 1018.18 1018.17 1018.30 1018.14 1018.19
1011.29 1012.33 1012.78 1012.29 1011.59 1011.12 1010.77 1010.74 1010.87 1011.29 1011.39 1011.53 1011.54 1012.20 1013.07 1013.42 1014.01 1014.54 1015.14 1015.64 1016.06 1016.25 1016.49 1016.79 1016.70 1016.82 1017.19 1017.47 1017.82 1018.05 1018.22 1018.49 1018.57 1018.65 1018.69 1018.66 1018.64 1018.69 1018.71 1018.74 1018.80 1018.85 1018.65 1018.41 1018.51 1018.53 1018.65 1018.71 1018.75
1011.00 1012.09 1012.48 1011.61 1010.95 1010.70 1010.66 1010.91 1011.18 1011.47 1011.33 1011.60 1011.48 1011.56 1012.02 1012.74 1013.44 1014.48 1015.40 1015.98 1016.27 1016.66 1016.94 1017.02 1017.02 1016.94 1017.36 1017.57 1017.63 1017.89 1018.19 1018.45 1018.56 1018.61 1018.75 1018.98 1019.16 1019.21 1019.12 1018.92 1018.87 1018.81 1018.98 1018.78 1018.65 1018.91 1019.00 1019.19 1019.17
1010.96 1011.97 1011.56 1010.56 1010.07 1010.20 1010.40 1010.63 1011.31 1011.51 1011.52 1011.53 1011.57 1011.90 1012.19 1012.98 1013.69 1014.30 1015.14 1015.68 1016.12 1016.50 1016.87 1016.92 1017.00 1016.94 1017.44 1017.51 1017.76 1018.15 1018.45 1018.61 1018.77 1018.79 1018.95 1019.07 1019.16 1019.21 1019.25 1019.29 1019.13 1019.23 1019.09 1019.22 1019.10 1019.25 1019.45 1019.79 1019.92
1010.58 1010.76 1010.34 1009.86 1009.45 1009.70 1010.50 1011.02 1011.24 1011.46 1011.79 1010.90 1011.66 1012.45 1012.61 1012.88 1013.87 1014.38 1014.40 1014.99 1015.44 1016.02 1016.68 1016.68 1016.80 1017.02 1017.57 1017.80 1018.16 1018.44 1018.69 1018.80 1018.91 1018.94 1019.09 1019.17 1019.30 1019.33 1019.36 1019.63 1019.48 1019.72 1019.38 1019.62 1019.85 1019.97 1020.07 1020.32 1020.34
1010.12 1009.60 1009.59 1009.60 1009.33 1010.00 1010.84 1011.24 1011.55 1011.51 1010.85 1010.66 1011.04 1011.83 1012.49 1013.37 1013.77 1014.27 1014.88 1014.86 1015.36 1015.94 1016.14 1016.57 1016.71 1016.83 1017.33 1017.55 1017.75 1018.21 1018.64 1018.94 1019.10 1019.15 1019.26 1019.45 1019.40 1019.46 1019.44 1019.64 1019.80 1019.87 1019.75 1019.90 1020.25 1020.35 1020.54 1020.72 1020.82
1009.90 1009.33 1009.23 1009.40 1009.38 1009.91 1010.34 1010.98 1011.51 1011.60 1010.86 1010.90 1010.97 1011.91 1012.82 1013.56 1013.96 1014.45 1014.51 1015.01 1015.35 1015.57 1015.86 1016.18 1016.42 1016.74 1016.99 1017.39 1017.86 1018.29 1018.57 1018.75 1018.94 1019.15 1019.19 1019.26 1019.51 1019.45 1019.65 1019.61 1019.76 1019.94 1019.96 1020.08 1020.31 1020.68 1020.80 1020.96 1020.98
1009.45 1009.27 1009.23 1009.34 1009.31 1009.73 1010.35 1011.39 1011.51 1011.70 1011.36 1011.29 1011.51 1011.81 1013.39 1013.93 1014.03 1014.48 1014.74 1014.94 1014.99 1015.28 1015.59 1016.12 1016.59 1016.53 1016.93 1017.12 1017.54 1018.17 1018.44 1018.72 1019.01 1018.96 1019.04 1019.12 1019.29 1019.51 1019.57 1019.46 1019.78 1019.94 1020.00 1020.22 1020.45 1020.84 1021.02 1021.11 1021.20
1009.41 1009.40 1009.34 1009.55 1009.53 1010.05 1010.27 1011.43 1011.88 1011.69 1011.67 1011.62 1011.76 1012.52 1013.56 1013.72 1013.83 1013.93 1014.17 1014.57 1014.62 1014.69 1015.15 1015.67 1016.27 1016.61 1016.90 1017.11 1017.42 1017.88 1018.29 1018.59 1018.76 1018.94 1019.06 1019.15 1019.20 1019.44 1019.49 1019.51 1019.77 1019.92 1020.05 1020.30 1020.64 1021.09 1021.24 1021.34 1021.52
1009.95 1009.79 1009.86 1009.48 1009.44 1010.37 1011.01 1011.76 1012.31 1012.16 1012.32 1012.39 1012.27 1012.55 1013.24 1013.54 1013.83 1013.93 1014.10 1014.12 1014.57 1014.56 1014.67 1015.21 1015.81 1016.41 1016.79 1017.18 1017.43 1017.77 1018.02 1018.36 1018.73 1018.80 1018.90 1019.09 1019.13 1019.12 1019.28 1019.64 1019.84 1019.96 1020.03 1020.13 1020.19 1021.15 1021.34 1021.39 1021.59
1010.59 1010.55 1010.39 1010.02 1009.95 1010.29 1010.86 1012.27 1012.80 1013.01 1013.13 1013.05 1012.87 1013.01 1013.37 1013.37 1013.69 1013.64 1013.60 1013.77 1014.00 1014.11 1014.62 1015.06 1015.49 1016.14 1016.97 1017.15 1017.57 1017.87 1018.13 1018.43 1018.68 1018.83 1018.97 1018.96 1019.00 1019.10 1019.40 1019.70 1019.79 1019.90 1019.96 1019.99 1020.03 1020.74 1021.04 1021.32 1021.58
1010.96 1010.86 1010.71 1010.77 1010.53 1011.06 1011.78 1012.91 1013.38 1013.56 1013.69 1013.60 1013.57 1013.35 1013.82 1013.60 1013.75 1013.69 1013.73 1013.64 1013.85 1014.05 1014.56 1015.07 1015.62 1016.11 1017.18 1017.57 1018.19 1018.45 1018.44 1018.74 1018.85 1018.82 1018.90 1018.97 1019.16 1019.27 1019.57 1019.65 1019.69 1019.77 1020.03 1020.34 1020.40 1020.71 1020.86 1021.17 1021.34
1010.54 1010.67 1010.84 1010.92 1011.09 1011.72 1012.83 1013.45 1013.80 1013.93 1014.13 1014.04 1014.07 1013.66 1013.72 1013.74 1013.54 1013.52 1013.56 1013.90 1014.10 1014.18 1014.54 1014.98 1015.75 1016.38 1017.24 1018.05 1018.40 1018.79 1018.98 1019.23 1019.28 1019.06 1019.17 1019.36 1019.37 1019.36 1019.59 1019.68 1019.73 1019.75 1019.95 1020.31 1020.70 1020.88 1021.03 1021.24 1021.50
1010.21 1010.34 1010.94 1011.17 1011.41 1012.22 1013.54 1014.14 1014.09 1014.22 1014.34 1014.06 1014.20 1013.99 1013.59 1013.65 1013.86 1013.66 1013.66 1014.04 1014.44 1014.40 1014.76 1015.06 1015.96 1016.61 1017.08 1017.77 1018.08 1018.43 1018.87 1019.15 1019.15 1019.24 1019.30 1019.48 1019.44 1019.42 1019.61 1019.68 1019.74 1019.85 1020.11 1020.33 1020.70 1020.83 1021.04 1021.25 1021.41
1009.28 1009.67 1010.29 1010.93 1011.97 1013.13 1013.66 1014.75 1014.83 1014.48 1014.55 1014.07 1013.93 1013.90 1013.70 1013.57 1013.51 1013.71 1013.87 1014.21 1014.61 1014.60 1014.78 1015.21 1015.93 1016.56 1017.22 1017.95 1018.24 1018.59 1018.97 1019.38 1019.50 1019.54 1019.53 1019.51 1019.44 1019.47 1019.58 1019.68 1019.85 1020.09 1020.21 1020.35 1020.50 1020.74 1020.92 1021.15 1021.42
1008.64 1008.63 1009.81 1010.89 1012.15 1013.38 1013.81 1015.53 1015.29 1015.00 1014.90 1014.80 1014.42 1013.92 1013.47 1013.47 1013.25 1013.22 1013.50 1014.05 1014.45 1014.41 1014.76 1015.30 1016.02 1016.69 1017.34 1017.71 1018.23 1018.45 1018.69 1019.05 1019.05 1019.31 1019.44 1019.50 1019.60 1019.62 1019.59 1019.68 1019.92 1020.15 1020.18 1020.27 1020.40 1020.53 1020.81 1020.99 1021.19
1008.48 1008.70 1010.11 1011.19 1012.35 1013.17 1014.04 1014.83 1014.78 1015.04 1015.21 1014.81 1014.47 1014.24 1013.58 1013.45 1013.10 1013.02 1013.22 1013.77 1014.34 1014.56 1014.84 1015.26 1015.98 1016.74 1017.31 1017.59 1017.78 1018.09 1018.36 1018.60 1019.01 1019.20 1019.32 1019.47 1019.53 1019.54 1019.58 1019.69 1019.86 1019.99 1020.10 1020.26 1020.42 1020.60 1020.76 1020.81 1020.91
1008.37 1009.45 1011.10 1012.34 1013.33 1014.33 1013.99 1014.38 1014.08 1014.48 1013.69 1014.12 1014.14 1014.11 1013.83 1013.46 1013.19 1013.50 1013.59 1013.89 1014.36 1014.64 1014.92 1015.39 1016.04 1016.55 1016.78 1017.03 1017.34 1017.59 1017.97 1018.45 1018.81 1019.06 1019.29 1019.41 1019.45 1019.47 1019.47 1019.54 1019.77 1019.98 1020.10 1020.24 1020.32 1020.51 1020.59 1020.67 1020.79
1008.55 1010.58 1012.65 1014.21 1014.71 1014.71 1014.27 1014.13 1012.83 1012.22 1012.07 1012.06 1012.60 1013.17 1013.53 1013.59 1013.62 1013.71 1014.15 1014.53 1014.62 1014.67 1014.80 1015.16 1015.37 1015.49 1016.03 1016.61 1017.12 1017.43 1017.87 1018.26 1018.39 1018.55 1018.77 1018.94 1019.07 1019.08 1019.06 1019.24 1019.53 1019.80 1020.00 1020.10 1020.19 1020.29 1020.39 1020.53 1020.67
1009.06 1010.39 1012.26 1014.18 1015.50 1015.02 1014.30 1013.73 1012.31 1011.69 1011.42 1011.99 1012.25 1013.05 1013.55 1013.88 1013.90 1013.88 1014.04 1014.44 1014.51 1014.60 1014.76 1014.95 1014.92 1015.25 1015.95 1016.46 1016.87 1017.33 1017.77 1018.01 1018.22 1018.47 1018.62 1018.67 1018.68 1018.53 1018.56 1018.77 1019.03 1019.24 1019.47 1019.63 1019.78 1019.94 1020.11 1020.28 1020.35
1009.19 1010.71 1011.93 1013.83 1015.42 1015.51 1014.83 1013.58 1012.05 1011.70 1011.88 1012.31 1012.68 1013.04 1013.23 1013.66 1013.81 1014.02 1014.04 1014.07 1014.18 1014.36 1014.58 1014.78 1015.15 1015.62 1015.93 1016.37 1016.83 1017.23 1017.47 1017.91 1018.29 1018.52 1018.53 1018.53 1018.47 1018.36 1018.38 1018.45 1018.69 1018.83 1019.02 1019.18 1019.34 1019.53 1019.75 1019.84 1019.94
1008.55 1010.58 1012.17 1013.90 1015.54 1015.89 1015.10 1014.15 1012.99 1012.13 1012.07 1012.36 1012.58 1012.48 1012.77 1013.09 1013.37 1013.47 1013.67 1013.65 1013.94 1014.09 1014.28 1014.76 1015.24 1015.53 1015.78 1016.17 1016.57 1016.87 1017.31 1017.74 1018.12 1018.51 1018.51 1018.37 1018.17 1018.11 1018.04 1018.17 1018.31 1018.48 1018.55 1018.72 1019.04 1019.25 1019.35 1019.53 1019.58
1009.46 1010.82 1012.72 1014.28 1015.29 1015.80 1015.56 1014.27 1012.39 1011.99 1011.75 1012.30 1012.22 1012.33 1012.39 1012.47 1012.50 1012.71 1013.06 1013.33 1013.93 1014.27 1014.25 1014.64 1015.17 1015.41 1015.61 1015.96 1016.24 1016.55 1016.46 1016.22 1016.15 1016.70 1017.44 1018.36 1018.12 1017.65 1017.55 1017.51 1017.64 1017.92 1018.04 1018.13 1018.42 1018.69 1018.97 1019.19 1019.21
1009.21 1010.81 1012.29 1014.21 1015.49 1015.75 1015.24 1013.79 1012.40 1012.11 1011.87 1011.84 1011.44 1011.34 1011.69 1011.82 1012.15 1012.40 1012.83 1013.25 1013.70 1014.40 1014.68 1014.62 1015.03 1015.33 1015.41 1015.54 1015.60 1015.84 1015.97 1016.16 1016.57 1016.76 1016.70 1016.74 1017.45 1017.44 1017.26 1017.21 1017.23 1017.26 1017.38 1017.51 1017.72 1017.98 1018.20 1018.55 1018.73
Thickness
5801 5799 5798 5790 5757 5749 5745 5757 5772 5772 5772 5785 5788 5778 5772 5766 5761 5739 5772 5772 5770 5765 5762 5761 5759 5755 5752 5749 5744 5739 5738 5736 5734 5732 5732 5732 5731 5729 5728 5728 5726 5727 5729 5731 5733 5735 5735 5736 5737
5801 5797 5791 5771 5740 5727 5742 5765 5767 5772 5781 5784 5782 5775 5770 5758 5770 5769 5769 5771 5768 5765 5758 5755 5755 5751 5748 5744 5740 5736 5733 5732 5730 5728 5728 5727 5728 5726 5724 5723 5722 5724 5726 5727 5728 5729 5729 5731 5735
5802 5799 5775 5748 5726 5732 5743 5770 5776 5778 5783 5779 5775 5781 5769 5757 5767 5766 5770 5768 5763 5757 5753 5750 5748 5747 5744 5741 5736 5732 5730 5729 5726 5725 5724 5723 5722 5721 5720 5719 5719 5719 5720 5721 5723 5724 5723 5724 5728
5795 5784 5769 5741 5739 5757 5769 5778 5776 5776 5781 5781 5777 5763 5771 5774 5769 5769 5766 5761 5757 5752 5748 5746 5743 5741 5740 5737 5734 5732 5729 5726 5724 5722 5720 5719 5718 5717 5716 5716 5715 5716 5717 5717 5717 5717 5718 5718 5720
5789 5772 5745 5738 5747 5762 5777 5784 5784 5778 5774 5772 5776 5761 5759 5768 5776 5772 5768 5760 5754 5749 5746 5743 5741 5737 5734 5732 5729 5727 5726 5725 5723 5721 5719 5717 5715 5714 5713 5711 5710 5712 5712 5711 5712 5712 5712 5712 5713
5770 5764 5733 5731 5746 5767 5776 5788 5786 5783 5770 5772 5770 5765 5758 5768 5769 5768 5768 5763 5756 5749 5746 5741 5736 5733 5731 5727 5727 5723 5721 5721 5719 5719 5716 5716 5714 5712 5710 5707 5706 5707 5706 5704 5705 5708 5706 5706 5706
5769 5747 5738 5746 5747 5761 5773 5785 5777 5772 5765 5771 5777 5756 5761 5763 5764 5763 5759 5756 5751 5747 5743 5742 5739 5732 5728 5726 5723 5722 5718 5717 5716 5715 5715 5714 5712 5710 5708 5704 5701 5702 5701 5701 5699 5699 5698 5700 5699
5768 5752 5748 5746 5749 5760 5774 5777 5777 5769 5769 5781 5782 5758 5752 5764 5762 5757 5753 5747 5743 5740 5736 5733 5734 5732 5727 5724 5720 5717 5717 5715 5713 5711 5710 5710 5708 5706 5703 5701 5698 5697 5698 5698 5694 5693 5692 5691 5690
5778 5740 5732 5756 5762 5769 5776 5770 5775 5778 5775 5778 5781 5777 5776 5771 5764 5754 5745 5741 5738 5735 5731 5729 5729 5729 5725 5723 5722 5719 5716 5714 5712 5711 5709 5708 5705 5702 5700 5697 5695 5694 5692 5692 5692 5687 5685 5683 5683
5765 5737 5747 5771 5778 5774 5776 5776 5771 5772 5772 5774 5777 5778 5776 5768 5760 5752 5744 5741 5739 5734 5731 5731 5729 5729 5725 5723 5721 5718 5714 5713 5711 5711 5708 5706 5703 5700 5697 5694 5691 5689 5689 5684 5685 5683 5679 5676 5674
5768 5755 5770 5781 5787 5786 5774 5773 5777 5769 5763 5778 5769 5768 5771 5768 5758 5752 5752 5748 5744 5740 5733 5734 5732 5729 5725 5722 5719 5717 5714 5712 5710 5709 5706 5704 5700 5698 5696 5692 5690 5684 5685 5682 5676 5676 5674 5669 5668
5770 5782 5783 5786 5790 5781 5771 5773 5769 5773 5780 5789 5784 5780 5773 5765 5760 5754 5748 5750 5747 5741 5739 5734 5731 5730 5727 5725 5724 5720 5714 5711 5709 5706 5703 5700 5698 5695 5694 5691 5686 5681 5680 5676 5669 5668 5667 5663 5662
5772 5784 5785 5786 5785 5780 5781 5772 5769 5769 5784 5789 5788 5778 5769 5764 5760 5756 5755 5752 5748 5744 5742 5739 5736 5733 5729 5727 5723 5719 5716 5713 5710 5706 5703 5701 5696 5694 5690 5688 5684 5678 5673 5668 5664 5660 5659 5658 5657
5784 5784 5783 5785 5784 5783 5775 5765 5771 5771 5782 5783 5781 5778 5763 5759 5759 5753 5752 5749 5750 5748 5744 5739 5734 5733 5729 5728 5724 5718 5715 5711 5706 5706 5703 5699 5696 5692 5689 5687 5679 5674 5667 5661 5656 5653 5653 5653 5652
5783 5778 5781 5778 5784 5779 5780 5767 5760 5772 5777 5777 5777 5772 5761 5761 5762 5758 5757 5753 5754 5754 5749 5742 5736 5731 5729 5727 5723 5718 5714 5710 5707 5703 5699 5696 5694 5690 5687 5683 5678 5672 5664 5658 5653 5650 5649 5649 5648
5767 5763 5751 5778 5781 5774 5769 5751 5757 5769 5769 5767 5771 5767 5761 5759 5758 5759 5757 5756 5755 5756 5755 5748 5741 5734 5728 5723 5720 5716 5714 5710 5705 5703 5699 5695 5692 5690 5688 5682 5676 5670 5665 5659 5656 5646 5644 5646 5645
5745 5740 5752 5761 5775 5776 5770 5753 5757 5763 5761 5759 5761 5761 5757 5756 5755 5757 5760 5760 5759 5758 5754 5749 5742 5735 5725 5721 5717 5713 5711 5708 5705 5702 5697 5695 5691 5688 5684 5678 5674 5669 5665 5662 5658 5649 5647 5644 5642
5744 5746 5751 5750 5766 5760 5750 5742 5751 5755 5755 5754 5754 5755 5750 5753 5751 5754 5756 5761 5760 5757 5753 5747 5739 5732 5718 5715 5709 5706 5707 5704 5701 5699 5696 5693 5688 5685 5680 5677 5674 5669 5664 5660 5657 5651 5647 5644 5642
5753 5751 5746 5753 5765 5751 5737 5739 5744 5750 5751 5749 5748 5751 5750 5750 5756 5757 5757 5756 5754 5754 5751 5745 5737 5728 5717 5705 5702 5699 5699 5696 5695 5695 5691 5687 5684 5682 5677 5675 5672 5669 5664 5660 5655 5651 5648 5644 5639
5749 5745 5734 5753 5762 5745 5736 5733 5743 5747 5746 5748 5745 5747 5751 5751 5749 5753 5754 5751 5748 5748 5745 5743 5733 5725 5718 5702 5701 5702 5698 5694 5693 5691 5689 5683 5680 5678 5675 5673 5671 5667 5663 5660 5655 5652 5648 5644 5641
5758 5750 5748 5746 5747 5741 5736 5724 5730 5743 5741 5749 5750 5751 5752 5751 5750 5750 5751 5748 5746 5745 5743 5739 5732 5724 5716 5707 5703 5698 5695 5690 5688 5686 5684 5681 5679 5676 5673 5671 5667 5663 5661 5658 5655 5651 5647 5644 5640
5757 5773 5764 5751 5738 5711 5739 5696 5713 5725 5731 5739 5743 5747 5752 5754 5757 5757 5755 5750 5747 5747 5743 5738 5729 5720 5712 5707 5701 5699 5695 5690 5689 5685 5683 5680 5676 5674 5672 5669 5665 5661 5659 5656 5653 5650 5646 5642 5639
5761 5773 5759 5751 5732 5729 5725 5707 5718 5721 5721 5730 5738 5743 5752 5755 5759 5760 5759 5754 5748 5746 5742 5736 5727 5717 5711 5707 5704 5699 5696 5692 5687 5684 5682 5678 5675 5673 5670 5667 5664 5661 5658 5654 5650 5646 5642 5640 5638
5765 5754 5736 5724 5714 5703 5725 5715 5720 5709 5731 5735 5741 5744 5750 5755 5758 5757 5757 5752 5746 5742 5738 5732 5725 5718 5714 5710 5706 5701 5696 5690 5685 5681 5677 5674 5672 5670 5668 5664 5661 5657 5654 5651 5648 5644 5640 5637 5634
5756 5728 5691 5695 5687 5693 5718 5713 5730 5749 5752 5759 5755 5750 5751 5753 5754 5754 5748 5743 5740 5737 5735 5731 5728 5725 5718 5711 5705 5700 5694 5688 5685 5681 5677 5673 5670 5667 5666 5662 5657 5652 5648 5646 5642 5639 5636 5632 5629
5744 5735 5695 5688 5678 5695 5715 5709 5732 5754 5759 5759 5759 5751 5748 5747 5750 5751 5746 5741 5737 5735 5733 5730 5729 5724 5716 5709 5702 5695 5689 5685 5681 5676 5672 5670 5667 5666 5662 5658 5654 5650 5645 5642 5638 5635 5631 5628 5624
5743 5720 5731 5692 5687 5688 5695 5719 5744 5749 5748 5748 5746 5746 5745 5744 5743 5742 5742 5740 5737 5734 5731 5729 5724 5717 5711 5704 5697 5690 5685 5678 5672 5668 5666 5663 5660 5659 5655 5653 5648 5645 5641 5637 5634 5630 5626 5623 5620
5757 5739 5714 5694 5681 5683 5685 5698 5705 5738 5738 5740 5741 5745 5745 5744 5741 5740 5739 5738 5735 5732 5728 5721 5714 5708 5704 5698 5692 5687 5680 5674 5667 5659 5656 5656 5656 5652 5650 5646 5643 5639 5636 5632 5627 5624 5620 5617 5614
5735 5723 5703 5694 5684 5668 5666 5685 5722 5734 5741 5737 5740 5743 5743 5745 5746 5742 5738 5735 5728 5724 5722 5714 5707 5701 5696 5692 5686 5681 5681 5680 5673 5665 5654 5644 5646 5648 5646 5644 5640 5634 5631 5628 5623 5618 5613 5609 5606
5747 5727 5712 5689 5691 5669 5671 5687 5732 5734 5734 5736 5745 5749 5745 5745 5742 5739 5733 5727 5722 5715 5710 5707 5701 5694 5690 5687 5683 5680 5677 5671 5662 5656 5653 5651 5641 5638 5638 5636 5634 5631 5627 5624 5619 5614 5610 5604 5598